Zurück zum Katalog

STARLINK-2583

AktivKommunikationVLEO
NORAD 48439·PAYLOAD·🇺🇸 United States

Gestartet May 9, 2021 von Cape Canaveral Space Force Station

Loading…

Nächste Überflüge (nächste 24 Stunden)

TLE

AktuellSource: CelesTrak SupGP

Epoche: Sep 14, 2026, 20:57 UTC

1 48439C 21040M   26257.87340278  .00013486  00000+0  43362-3 0  2575
2 48439  53.1596  17.9699 0001211  70.6749 254.7989 15.31698438    11

Verfolge STARLINK-2583 in Echtzeit mit AllMySat

Download on the App Store